When you browse on this site, cookies collect data to enhance your experience and personalize the content and advertising you see.
Visit our Privacy Policy to learn more. By continuing to use the site, you agree to this use of cookies and data.
  • In United Kingdom
  • List of Countries
  • For 7 days
  • Water Temperature
  • Satellite Maps
  • Weather Map
  • Weather Widgets
  • user-avatar
    Login

    Hourly Weather Wavre

    Today, 15 December, Saturday

    Time Temperature Precipitation Wind Pressure Humidity
    00:00 0°C° 0 mm 1 mps 763 mmHg 69%
    01:00 0°C° 0 mm 1 mps 763 mmHg 69%
    02:00 0°C° 0 mm 1 mps 763 mmHg 69%
    03:00 0°C° 0 mm 1 mps 762 mmHg 69%
    04:00 -3°C° 0 mm 2 mps 762 mmHg 70%
    05:00 -3°C° 0 mm 2 mps 762 mmHg 71%
    06:00 -3°C° 0 mm 2 mps 762 mmHg 72%
    07:00 -4°C° 0 mm 3 mps 762 mmHg 71%
    08:00 -4°C° 0 mm 3 mps 761 mmHg 69%
    09:00 -2°C° 0 mm 3 mps 761 mmHg 68%
    10:00 -2°C° 0 mm 4 mps 761 mmHg 63%
    11:00 -1°C° 0 mm 4 mps 760 mmHg 59%
    12:00 0°C° 0 mm 5 mps 760 mmHg 55%
    13:00 -1°C° 0 mm 5 mps 759 mmHg 56%
    14:00 -1°C° 0 mm 5 mps 758 mmHg 57%
    15:00 -1°C° 0 mm 5 mps 757 mmHg 58%
    16:00 -1°C° 0.1 mm 5 mps 757 mmHg 59%
    17:00 -2°C° 0.1 mm 6 mps 756 mmHg 60%
    18:00 -2°C° 0.1 mm 7 mps 755 mmHg 61%
    19:00 -2°C° 0.9 mm 7 mps 754 mmHg 66%
    20:00 -2°C° 0.9 mm 8 mps 753 mmHg 71%
    21:00 -2°C° 0.9 mm 8 mps 752 mmHg 76%
    22:00 -1°C° 2 mm 8 mps 752 mmHg 80%
    23:00 -1°C° 2 mm 7 mps 751 mmHg 85%

    Tomorrow, 16 December, Sunday

    Time Temperature Precipitation Wind Pressure Humidity
    00:00 -1°C° 2 mm 7 mps 751 mmHg 89%
    01:00 -1°C° 0.2 mm 6 mps 751 mmHg 90%
    02:00 -1°C° 0.2 mm 6 mps 750 mmHg 92%
    03:00 0°C° 0.2 mm 5 mps 750 mmHg 93%
    04:00 0°C° 0 mm 5 mps 750 mmHg 94%
    05:00 +1°C° 0 mm 5 mps 750 mmHg 95%
    06:00 +1°C° 0 mm 4 mps 750 mmHg 95%
    07:00 +1°C° 0 mm 4 mps 751 mmHg 96%
    08:00 +1°C° 0 mm 4 mps 751 mmHg 96%
    09:00 +1°C° 0 mm 4 mps 751 mmHg 96%
    10:00 +1°C° 0.5 mm 4 mps 751 mmHg 96%
    11:00 +3°C° 0.5 mm 4 mps 751 mmHg 96%
    12:00 +3°C° 0.5 mm 4 mps 752 mmHg 96%
    13:00 +3°C° 0.1 mm 4 mps 752 mmHg 96%
    14:00 +3°C° 0.1 mm 4 mps 752 mmHg 96%
    15:00 +3°C° 0.1 mm 4 mps 752 mmHg 95%
    16:00 +3°C° 0 mm 4 mps 752 mmHg 95%
    17:00 +3°C° 0 mm 4 mps 753 mmHg 95%
    18:00 +1°C° 0 mm 4 mps 753 mmHg 95%
    19:00 +1°C° 0 mm 4 mps 753 mmHg 95%
    20:00 +2°C° 0 mm 3 mps 753 mmHg 95%
    21:00 +1°C° 0 mm 3 mps 753 mmHg 95%
    22:00 +2°C° 0 mm 3 mps 753 mmHg 95%
    23:00 +2°C° 0 mm 3 mps 753 mmHg 95%

    Day after tomorrow, 17 December, Monday

    Time Temperature Precipitation Wind Pressure Humidity
    00:00 +2°C° 0 mm 3 mps 753 mmHg 94%
    01:00 +2°C° 0.3 mm 3 mps 753 mmHg 95%
    02:00 +2°C° 0.3 mm 3 mps 753 mmHg 95%
    03:00 +3°C° 0.3 mm 3 mps 753 mmHg 95%
    04:00 +3°C° 0.6 mm 3 mps 753 mmHg 95%
    05:00 +3°C° 0.6 mm 2 mps 754 mmHg 95%
    06:00 +3°C° 0.6 mm 2 mps 754 mmHg 95%
    07:00 +3°C° 0.6 mm 2 mps 755 mmHg 96%
    08:00 +3°C° 0.6 mm 2 mps 756 mmHg 96%
    09:00 +4°C° 0.6 mm 2 mps 756 mmHg 97%
    10:00 +4°C° 0.1 mm 2 mps 757 mmHg 95%
    11:00 +5°C° 0.1 mm 2 mps 757 mmHg 93%
    12:00 +5°C° 0.1 mm 3 mps 758 mmHg 91%
    13:00 +5°C° 0 mm 3 mps 759 mmHg 92%
    14:00 +4°C° 0 mm 3 mps 759 mmHg 92%
    15:00 +5°C° 0 mm 2 mps 760 mmHg 93%
    16:00 +4°C° 0 mm 3 mps 760 mmHg 93%
    17:00 +3°C° 0 mm 3 mps 761 mmHg 94%
    18:00 +3°C° 0 mm 3 mps 761 mmHg 94%
    19:00 +3°C° 0 mm 3 mps 761 mmHg 94%
    20:00 +3°C° 0 mm 3 mps 762 mmHg 94%
    21:00 +3°C° 0 mm 3 mps 762 mmHg 94%
    22:00 +3°C° 0 mm 4 mps 762 mmHg 94%
    23:00 +3°C° 0 mm 4 mps 762 mmHg 93%

    18 December, Tuesday

    Time Temperature Precipitation Wind Pressure Humidity
    00:00 +3°C° 0 mm 4 mps 762 mmHg 93%
    01:00 +3°C° 0 mm 4 mps 762 mmHg 93%
    02:00 +3°C° 0 mm 4 mps 762 mmHg 93%
    03:00 +2°C° 0 mm 5 mps 761 mmHg 93%
    04:00 +2°C° 0 mm 5 mps 761 mmHg 93%
    05:00 +2°C° 0 mm 5 mps 761 mmHg 93%
    06:00 +2°C° 0 mm 5 mps 761 mmHg 93%
    07:00 +2°C° 0 mm 5 mps 761 mmHg 92%
    08:00 +2°C° 0 mm 5 mps 761 mmHg 91%
    09:00 +3°C° 0 mm 6 mps 761 mmHg 90%
    10:00 +3°C° 0 mm 6 mps 760 mmHg 84%
    11:00 +4°C° 0 mm 6 mps 759 mmHg 79%
    12:00 +5°C° 0 mm 6 mps 758 mmHg 73%
    13:00 +5°C° 0 mm 6 mps 757 mmHg 71%
    14:00 +5°C° 0 mm 6 mps 757 mmHg 69%
    15:00 +4°C° 0 mm 6 mps 756 mmHg 67%
    16:00 +4°C° 0 mm 7 mps 755 mmHg 67%
    17:00 +4°C° 0 mm 7 mps 755 mmHg 67%
    18:00 +3°C° 0 mm 7 mps 754 mmHg 67%
    19:00 +3°C° 0 mm 7 mps 754 mmHg 68%
    20:00 +3°C° 0 mm 7 mps 753 mmHg 69%
    21:00 +3°C° 0 mm 7 mps 753 mmHg 70%
    22:00 +4°C° 0.1 mm 7 mps 753 mmHg 72%
    23:00 +4°C° 0.1 mm 7 mps 752 mmHg 74%

    19 December, Wednesday

    Time Temperature Precipitation Wind Pressure Humidity
    00:00 +4°C° 0.1 mm 7 mps 752 mmHg 76%
    01:00 +5°C° 0.4 mm 7 mps 752 mmHg 80%
    02:00 +5°C° 0.4 mm 7 mps 752 mmHg 83%
    03:00 +5°C° 0.4 mm 7 mps 752 mmHg 86%
    04:00 +5°C° 0.1 mm 6 mps 752 mmHg 88%
    05:00 +6°C° 0.1 mm 5 mps 753 mmHg 90%
    06:00 +6°C° 0.1 mm 5 mps 753 mmHg 92%
    07:00 +6°C° 0 mm 5 mps 753 mmHg 92%
    08:00 +6°C° 0 mm 4 mps 754 mmHg 92%
    09:00 +5°C° 0 mm 4 mps 754 mmHg 93%
    10:00 +6°C° 0 mm 4 mps 754 mmHg 90%
    11:00 +7°C° 0 mm 4 mps 754 mmHg 87%
    12:00 +7°C° 0 mm 5 mps 754 mmHg 84%
    13:00 +7°C° 0 mm 4 mps 754 mmHg 85%
    14:00 +7°C° 0 mm 4 mps 755 mmHg 86%
    15:00 +7°C° 0 mm 3 mps 755 mmHg 87%
    16:00 +7°C° 0 mm 3 mps 755 mmHg 88%
    17:00 +7°C° 0 mm 3 mps 755 mmHg 89%
    18:00 +7°C° 0 mm 3 mps 755 mmHg 89%
    19:00 +5°C° 0 mm 3 mps 756 mmHg 91%
    20:00 +5°C° 0 mm 3 mps 756 mmHg 92%
    21:00 +4°C° 0 mm 3 mps 756 mmHg 93%
    22:00 +4°C° 0 mm 3 mps 756 mmHg 94%
    23:00 +3°C° 0 mm 3 mps 756 mmHg 94%

    20 December, Thursday

    Time Temperature Precipitation Wind Pressure Humidity
    00:00 +3°C° 0 mm 3 mps 756 mmHg 95%
    01:00 +3°C° 0 mm 3 mps 757 mmHg 94%
    02:00 +3°C° 0 mm 3 mps 757 mmHg 94%
    03:00 +3°C° 0 mm 3 mps 757 mmHg 94%
    04:00 +3°C° 0 mm 3 mps 757 mmHg 94%
    05:00 +3°C° 0 mm 4 mps 757 mmHg 94%
    06:00 +3°C° 0 mm 4 mps 758 mmHg 94%
    07:00 +3°C° 0 mm 4 mps 758 mmHg 93%
    08:00 +3°C° 0 mm 4 mps 758 mmHg 92%
    09:00 +3°C° 0 mm 4 mps 759 mmHg 92%
    10:00 +4°C° 0 mm 4 mps 759 mmHg 88%
    11:00 +5°C° 0 mm 4 mps 759 mmHg 85%
    12:00 +5°C° 0 mm 5 mps 759 mmHg 82%
    13:00 +5°C° 0 mm 4 mps 759 mmHg 83%
    14:00 +5°C° 0 mm 4 mps 759 mmHg 85%
    15:00 +5°C° 0 mm 4 mps 759 mmHg 87%
    16:00 +4°C° 0 mm 4 mps 760 mmHg 88%
    17:00 +4°C° 0 mm 4 mps 760 mmHg 90%
    18:00 +3°C° 0 mm 4 mps 760 mmHg 91%
    19:00 +3°C° 0 mm 4 mps 761 mmHg 91%
    20:00 +3°C° 0 mm 4 mps 761 mmHg 91%
    21:00 +3°C° 0 mm 4 mps 761 mmHg 91%
    22:00 +3°C° 0 mm 4 mps 761 mmHg 91%
    23:00 +3°C° 0 mm 4 mps 761 mmHg 91%
    Show more